Weather in Rapqon

Uzbekistan     40°21′06″N   70°39′35″E
temp.,
°C
wind,
m/s
gust,
m/s
humid.,
%
clouds,
%
prec.,
mm/h
press.,
hPa
HPBL,
m
28 september, tue
tue2823:00+17s11430 0.0 101528
02:00+16w12470 0.0 101419
05:00+15wsw12500 0.0 101417
08:00+18wnw11390 0.0 1015184
11:00+23n11305 0.0 1013810
14:00+27nw22235 0.0 10111234
17:00+27wnw342266 0.0 1011675
20:00+22sw443192 0.0 101258
29 september, wed
wed2923:00+20ssw3333100 0.0 101226
02:00+18wsw22372 0.0 101230
05:00+17w22400 0.0 101324
08:00+21wnw243161 0.0 1014315
11:00+24wnw4426100 0.0 1014868
14:00+27wnw66202 0.0 10121184
17:00+26w1012202 0.0 1012799
20:00+22sw68245 0.0 1015139
30 september, thu
thu3023:00+19ssw44280 0.0 101539
02:00+18ssw33300 0.0 101518
05:00+16w22360 0.0 101619
08:00+19w33290 0.0 1017233
11:00+23wnw33230 0.0 1016745
14:00+26wnw44190 0.0 10131059
17:00+26w681859 0.0 1012793
20:00+21wsw61025100 0.0 1014235
1 october, fri
fri123:00+20sw44289 0.0 101450
02:00+18sw343197 0.0 101547
05:00+17wsw443358 0.0 101683
08:00+19w5123093 0.0 1017746
11:00+23w11122599 0.0 10171051
14:00+24w12122288 0.0 10151009
17:00+21w11142699 0.0 1017951
20:00+18wsw8143279 0.0 1019662
2 october, sat
sat223:00+17wsw5103484 0.0 1019398
02:00+15wsw463726 0.0 1019136
05:00+13wsw344331 0.0 102190
08:00+14w3439100 0.0 1021339
11:00+17wnw563193 0.0 1021733
14:00+19wnw672899 0.0 1020920
17:00+19w6827100 0.0 1020735
20:00+15wsw353277 0.0 1021189